Location: Newark
(49.5647°N, 8.2922°E)
Time: 22:07:57
(UTC+00:00)

Explorer 7 - All Passes

Search period start: 17 February 2020 00:00
Search period end: 27 February 2020 00:00
Orbit: 485 x 679 km, 50.3° (Epoch: 16 February)

Date Brightness Start Highest point End Pass type
(mag) Time Alt. Az. Time Alt. Az. Time Alt. Az.
17 Feb - 12:48:38 10° SSW 12:52:09 23° SE 12:55:31 10° E daylight
17 Feb - 14:27:53 10° WSW 14:32:16 67° SSE 14:36:23 10° ENE daylight
17 Feb - 16:08:34 10° W 16:12:50 79° N 16:16:50 10° E daylight
17 Feb - 17:49:18 10° WNW 17:53:22 66° SSW 17:57:12 10° ESE visible
17 Feb - 19:30:28 10° W 19:33:19 19° SW 19:36:06 10° S visible
18 Feb - 12:52:53 10° SSW 12:56:54 32° SSE 13:00:42 10° E daylight
18 Feb - 14:32:45 10° WSW 14:37:10 82° SSE 14:41:18 10° ENE daylight
18 Feb - 16:13:32 10° W 16:17:47 82° N 16:21:47 10° E daylight
18 Feb - 17:54:16 10° W 17:58:13 50° SSW 18:01:58 10° SE visible
18 Feb - 19:36:08 10° WSW 19:37:57 13° SW 19:39:44 10° SSW visible
19 Feb - 11:20:01 10° SSE 11:21:51 12° SE 11:23:39 10° ESE daylight
19 Feb - 12:57:22 10° SW 13:01:40 43° SSE 13:05:45 10° E daylight
19 Feb - 14:37:41 10° W 14:42:06 87° NNW 14:46:14 10° E daylight
19 Feb - 16:18:29 10° W 16:22:44 89° N 16:26:43 10° ESE daylight
19 Feb - 17:59:16 10° W 18:03:01 36° SSW 18:06:35 10° SE visible
20 Feb - 11:23:20 10° S 11:26:29 18° SE 11:29:33 10° E daylight
20 Feb - 13:02:03 10° SW 13:06:31 58° SSE 13:10:43 10° ENE daylight
20 Feb - 14:42:38 10° W 14:47:03 81° N 14:51:10 10° E daylight
20 Feb - 16:23:25 10° WNW 16:27:39 78° SSW 16:31:37 10° ESE daylight
20 Feb - 18:04:22 10° W 18:07:45 26° SW 18:11:00 10° SSE visible
21 Feb - 11:27:21 10° SSW 11:31:12 26° SE 11:34:53 10° E daylight
21 Feb - 13:06:52 10° WSW 13:11:23 73° SSE 13:15:39 10° ENE daylight
21 Feb - 14:47:36 10° W 14:52:00 80° N 14:56:07 10° E daylight
21 Feb - 16:28:21 10° WNW 16:32:32 62° SSW 16:36:27 10° ESE daylight
21 Feb - 18:09:41 10° W 18:12:25 18° SW 18:15:05 10° S visible
22 Feb - 11:31:42 10° SW 11:35:57 36° SSE 11:40:00 10° E daylight
22 Feb - 13:11:45 10° WSW 13:16:18 86° SSE 13:20:34 10° ENE daylight
22 Feb - 14:52:33 10° W 14:56:58 84° N 15:01:04 10° E daylight
22 Feb - 16:33:19 10° W 16:37:22 46° SSW 16:41:10 10° SE daylight
22 Feb - 18:15:36 10° WSW 18:17:02 12° SW 18:18:27 10° SSW visible
23 Feb - 09:58:17 10° S 10:00:51 15° SE 10:03:22 10° ESE daylight
23 Feb - 11:36:16 10° SW 11:40:45 49° SSE 11:45:00 10° E daylight
23 Feb - 13:16:40 10° W 13:21:14 84° N 13:25:30 10° E daylight
23 Feb - 14:57:30 10° W 15:01:54 87° S 15:06:00 10° ESE daylight
23 Feb - 16:38:20 10° W 16:42:09 33° SSW 16:45:44 10° SSE daylight
24 Feb - 10:01:56 10° S 10:05:30 21° SE 10:08:57 10° E daylight
24 Feb - 11:40:58 10° WSW 11:45:36 63° SSE 11:49:58 10° ENE daylight
24 Feb - 13:21:38 10° W 13:26:11 80° N 13:30:26 10° E daylight
24 Feb - 15:02:26 10° WNW 15:06:48 74° SSW 15:10:53 10° ESE daylight
24 Feb - 16:43:29 10° W 16:46:51 24° SW 16:50:04 10° SSE daylight
25 Feb - 10:06:05 10° SSW 10:10:13 30° SE 10:14:11 10° E daylight
25 Feb - 11:45:48 10° WSW 11:50:29 78° SSE 11:54:53 10° ENE daylight
25 Feb - 13:26:35 10° W 13:31:09 81° N 13:35:23 10° E daylight
25 Feb - 15:07:22 10° WNW 15:11:40 58° SSW 15:15:40 10° SE daylight
25 Feb - 16:48:52 10° W 16:51:30 16° SW 16:54:03 10° S daylight
26 Feb - 08:33:47 10° SSE 08:35:13 11° SE 08:36:38 10° ESE daylight
26 Feb - 10:10:31 10° SW 10:14:58 40° SSE 10:19:14 10° E daylight
26 Feb - 11:50:42 10° WSW 11:55:24 90° S 11:59:49 10° E daylight
26 Feb - 13:31:33 10° W 13:36:06 86° NNE 13:40:20 10° E daylight
26 Feb - 15:12:20 10° W 15:16:29 43° SSW 15:20:21 10° SE daylight
26 Feb - 16:55:12 10° WSW 16:56:05 11° SW 16:56:58 10° SW daylight
